Location: Mannheim
(49.4880°N, 8.4650°E)
Time: 08:45:50
(UTC+01:00)

ISS - Pass Details

Date: 25 November 2022
Orbit: 411 x 420 km, 51.6° (Epoch: 30 November)

Event Time Altitude Azimuth Distance (km) Brightness Sun altitude
Rises 17:49:37 0° 255° (WSW) 2,345 2.2 -12.0°
Reaches altitude 10° 17:51:42 10° 256° (WSW) 1,482 0.5 -12.3°
Maximum altitude 17:55:01 80° 343° (NNW) 423 -3.8 -12.8°
Enters shadow 17:56:51 25° 69° (ENE) 886 -2.7 -13.1°
